FW6843 Weather Reports


time (UTC)temp
C
wind
direction
speed
KPH
gust
KPH
rain 1hr
cm
rain 24hr
cm
rain mn
cm
humidity
%
barometer
mb
20260508064537 14 0 0.0 6.4 0.00 0.00 0.00 93 1017.0
20260508063038 14 0 0.0 1.6 0.00 0.00 0.00 94 1017.1
20260508061540 14 196 0.0 3.2 0.00 0.00 0.00 93 1017.0
20260508060053 15 0 0.0 1.6 0.00 0.00 0.00 93 1017.0
20260508054537 15 0 0.0 1.6 0.00 0.00 0.00 93 1016.8
20260508053036 15 0 0.0 0.0 0.00 0.00 0.00 93 1016.8
20260508051540 14 0 0.0 0.0 0.00 0.00 0.00 92 1017.0
20260508050039 14 0 0.0 1.6 0.00 0.00 0.00 92 1016.9
20260508044538 15 0 0.0 0.0 0.00 0.00 0.00 93 1017.0
20260508043035 14 0 0.0 0.0 0.00 0.00 0.00 93 1016.8
20260508041536 14 0 0.0 0.0 0.00 0.00 0.00 93 1016.6
20260508040047 14 0 0.0 0.0 0.00 0.00 0.00 92 1016.5
20260508034546 14 0 0.0 0.0 0.00 0.00 0.00 92 1016.2
20260508033042 14 0 0.0 1.6 0.00 0.00 0.00 91 1016.0
20260508031538 15 0 0.0 1.6 0.00 0.00 0.00 90 1015.8
20260508030040 15 0 0.0 0.0 0.00 0.00 0.00 88 1015.4
20260508024600 16 0 0.0 0.0 0.00 0.00 0.00 86 1015.3
20260508023039 16 0 0.0 0.0 0.00 0.00 0.00 85 1015.1
20260508021538 16 0 0.0 1.6 0.00 0.00 0.00 84 1015.1
20260508020043 17 198 0.0 4.8 0.00 0.00 0.00 83 1015.1
20260508014538 17 0 0.0 4.8 0.00 0.00 0.00 81 1015.0
20260508013042 18 290 0.0 4.8 0.00 0.00 0.00 79 1015.1
20260508011538 18 283 1.6 4.8 0.00 0.00 0.00 78 1015.1
20260508010048 19 0 1.6 6.4 0.00 0.00 0.00 77 1015.0
20260508004545 20 279 1.6 4.8 0.00 0.00 0.00 76 1015.0
20260508003035 20 0 1.6 6.4 0.00 0.00 0.00 75 1015.0
20260508001546 20 0 1.6 9.7 0.00 0.00 0.00 76 1015.0
20260508000038 21 288 1.6 6.4 0.00 0.00 0.00 73 1015.0
20260507234535 21 269 0.0 6.4 0.00 0.00 0.00 73 1015.0
20260507233035 21 325 1.6 6.4 0.00 0.00 0.00 73 1015.1
20260507231536 20 0 1.6 6.4 0.00 0.00 0.00 75 1015.0
20260507230035 21 225 3.2 11.3 0.00 0.00 0.00 73 1015.3
20260507224537 21 259 3.2 9.7 0.00 0.00 0.00 71 1015.2
20260507223035 21 0 0.0 9.7 0.00 0.00 0.00 73 1015.3
20260507221540 21 316 4.8 11.3 0.00 0.00 0.00 71 1015.4
20260507220036 21 276 3.2 8.0 0.00 0.00 0.00 72 1015.6
20260507214537 21 254 3.2 9.7 0.00 0.00 0.00 73 1015.7
20260507213039 21 0 1.6 12.9 0.00 0.00 0.00 72 1016.0
20260507211536 21 355 1.6 11.3 0.00 0.00 0.00 73 1015.9
20260507210040 21 255 3.2 11.3 0.00 0.00 0.00 72 1016.1
20260507204534 21 283 3.2 11.3 0.00 0.00 0.00 72 1016.0
20260507203104 22 303 3.2 12.9 0.00 0.00 0.00 71 1016.1
20260507201538 22 256 3.2 12.9 0.00 0.00 0.00 71 1016.1
20260507200037 22 263 3.2 12.9 0.00 0.00 0.00 72 1016.2
20260507194535 22 294 3.2 11.3 0.00 0.00 0.00 72 1016.3
20260507193039 22 329 1.6 11.3 0.00 0.00 0.00 72 1016.4
20260507191542 22 299 3.2 11.3 0.00 0.00 0.00 71 1016.6
20260507190045 21 0 3.2 11.3 0.00 0.00 0.00 72 1016.8
20260507184535 21 302 3.2 12.9 0.00 0.00 0.00 72 1016.9
20260507183036 21 289 1.6 8.0 0.00 0.00 0.00 71 1017.0
20260507181535 21 296 1.6 6.4 0.00 0.00 0.00 73 1016.9
20260507180041 21 0 3.2 6.4 0.00 0.00 0.00 74 1017.0
20260507174544 20 309 0.0 6.4 0.00 0.00 0.00 75 1017.1
20260507173058 20 288 1.6 9.7 0.00 0.00 0.00 75 1017.2
20260507171541 20 0 1.6 9.7 0.00 0.00 0.00 76 1017.1
20260507170039 20 290 1.6 6.4 0.00 0.00 0.00 75 1017.2
20260507164539 19 317 1.6 6.4 0.00 0.00 0.00 76 1017.3
20260507163038 18 331 0.0 4.8 0.00 0.00 0.00 77 1017.2
20260507161546 18 0 0.0 0.0 0.00 0.00 0.00 78 1017.3
20260507160041 17 0 0.0 4.8 0.00 0.00 0.00 78 1017.2
20260507154535 17 0 0.0 1.6 0.00 0.00 0.00 82 1017.5
20260507153038 16 0 0.0 1.6 0.00 0.00 0.00 82 1017.7
20260507151537 16 0 0.0 0.0 0.00 0.00 0.00 84 1017.6
20260507150040 15 0 0.0 1.6 0.00 0.00 0.00 85 1017.5
20260507144535 15 0 0.0 1.6 0.00 0.00 0.00 84 1017.3
20260507143054 15 0 0.0 0.0 0.00 0.00 0.00 86 1017.2
20260507141549 14 0 0.0 0.0 0.00 0.00 0.00 86 1017.0
20260507140037 13 0 0.0 4.8 0.00 0.00 0.00 90 1016.7
20260507134536 12 0 0.0 0.0 0.00 0.00 0.00 91 1016.6
20260507133104 12 0 0.0 1.6 0.00 0.00 0.00 91 1016.4
20260507131538 12 0 0.0 0.0 0.00 0.00 0.00 91 1016.3
20260507130048 12 0 0.0 0.0 0.00 0.00 0.00 91 1016.5
20260507124535 12 0 0.0 0.0 0.00 0.00 0.00 91 1016.3
20260507123040 12 0 0.0 3.2 0.00 0.00 0.00 90 1016.3
20260507121537 12 0 0.0 4.8 0.00 0.00 0.00 90 1016.1
20260507120039 12 0 0.0 1.6 0.00 0.00 0.00 89 1016.3
20260507114545 12 0 0.0 1.6 0.00 0.00 0.00 90 1016.2
20260507113038 12 0 0.0 0.0 0.00 0.00 0.00 90 1016.3
20260507111535 12 0 0.0 0.0 0.00 0.00 0.00 90 1016.5
20260507110041 12 0 0.0 0.0 0.00 0.00 0.00 90 1016.6
20260507104540 12 0 0.0 0.0 0.00 0.00 0.00 90 1016.6
20260507103044 12 0 0.0 0.0 0.00 0.00 0.00 90 1016.6
20260507101538 12 0 0.0 0.0 0.00 0.00 0.00 90 1016.6
20260507100038 12 0 0.0 1.6 0.00 0.00 0.00 89 1016.5
20260507094544 12 128 0.0 1.6 0.00 0.00 0.00 89 1016.7
20260507093036 12 0 0.0 1.6 0.00 0.00 0.00 89 1016.7
20260507091538 12 0 0.0 1.6 0.00 0.00 0.00 88 1017.1
20260507090036 12 0 0.0 1.6 0.00 0.00 0.00 88 1017.3
20260507084539 12 0 0.0 1.6 0.00 0.00 0.00 88 1017.6
20260507083035 13 0 0.0 0.0 0.00 0.00 0.00 89 1017.6
20260507081539 13 0 0.0 0.0 0.00 0.00 0.00 89 1017.7
20260507080039 13 0 0.0 0.0 0.00 0.00 0.00 88 1017.8
20260507074536 13 0 0.0 0.0 0.00 0.00 0.00 88 1017.5
20260507073035 13 0 0.0 0.0 0.00 0.00 0.00 87 1017.6
20260507071538 13 0 0.0 0.0 0.00 0.00 0.00 87 1017.6
20260507070049 13 0 0.0 0.0 0.00 0.00 0.00 86 1017.7